Flag for U.S.A. Weather past 2 weeks in Hudson, Wisconsin, U.S.A.

Now
82 °F

Passing clouds.


Feels Like: 81 °F
Forecast: 61 / 81 °F
Wind: 18 mph from Northwest

Location: St. Paul Downtown Holman Field

Current Time: Jul 31, 2015 at 5:23:44 PM

Latest Report: Jul 31, 2015 at 3:53 PM


Visibility: 10 mi

Pressure: 29.98 "Hg

Humidity: 32%

Dew point: 49 °F

Location of HudsonLocation

Historic Weather in Hudson — Graph

°F

Hudson temperature yesterday

Maximum temperature yesterday: 84 °F (at 2:53 PM)
Minimum temperature yesterday: 63 °F (at 5:53 AM)
Average temperature yesterday: 75 °F

Past Weeks' High & Low Weather Summary

 TemperatureHumidityPressure
High88 °F (Jul 17, 4:53 PM)100% (Jul 17, 4:53 AM)30.05 "Hg (Jul 17, 4:53 AM)
Low60 °F (Jul 21, 5:53 AM)32% (Jul 31, 2:53 PM)29.65 "Hg (Jul 18, 2:53 AM)
Average75 °F67%29.88 "Hg
* Reported Jul 16 3:53 PM — Jul 31 3:53 PM, Hudson, Weather by CustomWeather, © 2015

Note: Actual official high and low records may vary slightly from our data, if they occured in-between our weather recording intervals... More about our weather records

Advertising

Hudson weather history for previous 24 hours

 ConditionsComfort  
Time TempWeatherWind HumidityBarometerVisibility
3:53 PM
Fri, Jul 31
82 °FPassing clouds.18 mph32%29.98 "Hg10 mi
2:53 PM82 °FPassing clouds.25 mph32%30.00 "Hg10 mi
1:53 PM81 °FPassing clouds.22 mph33%30.02 "Hg10 mi
12:53 PM80 °FSunny.23 mph35%30.03 "Hg10 mi
11:53 AM79 °FPassing clouds.17 mph38%30.04 "Hg10 mi
10:53 AM78 °FSunny.23 mph39%30.04 "Hg10 mi
9:53 AM76 °FSunny.20 mph42%30.05 "Hg10 mi
8:53 AM73 °FSunny.10 mph50%30.05 "Hg10 mi
7:53 AM70 °FSunny.12 mph57%30.05 "Hg10 mi
6:53 AM67 °FClear.7 mph63%30.04 "Hg10 mi
5:53 AM66 °FClear.9 mph63%30.02 "Hg10 mi
4:53 AM68 °FClear.8 mph61%30.01 "Hg10 mi
3:53 AM70 °FClear.10 mph61%30.01 "Hg10 mi
2:53 AM69 °FClear.5 mph70%29.99 "Hg10 mi
1:53 AM71 °FClear.8 mph66%29.99 "Hg10 mi
12:53 AM71 °FClear.6 mph66%30.00 "Hg10 mi
11:53 PM
Thu, Jul 30
74 °FClear.10 mph60%30.00 "Hg10 mi
10:53 PM75 °FPassing clouds.8 mph60%29.99 "Hg10 mi
9:53 PM75 °FClear.6 mph60%29.99 "Hg10 mi
8:53 PM78 °FSunny.9 mph52%29.98 "Hg10 mi
7:53 PM80 °FSunny.12 mph45%29.98 "Hg10 mi
6:53 PM82 °FPassing clouds.16 mph41%29.98 "Hg10 mi
5:53 PM84 °FSunny.16 mph36%30.00 "Hg10 mi
Weather by CustomWeather, © 2015

See weather overviewHow to use our weather pages